Location: Rimouski
(48.4330°N, 68.5170°W)
Time: 07:48:04
(UTC-04:00)

Daily predictions for brighter satellites

Satellite Brightness Start Highest point End
(mag) Time Altitude Azimuth Time Altitude Azimuth Time Altitude Azimuth
Meteor 1-22 Rocket 4.5 19:18:59 10° S 19:24:41 55° E 19:30:35 10° NNE
Cosmos 1805 4.4 19:21:37 10° SE 19:24:42 22° E 19:27:47 10° NE
Cosmos 1844 Rocket 2.7 19:20:59 10° SSW 19:26:38 84° ESE 19:32:18 10° NNE
Tiangong 1 3.4 19:26:20 10° WSW 19:28:07 15° SSW 19:29:53 10° SSE
Cosmos 1437 Rocket 2.8 19:27:08 10° S 19:31:10 83° E 19:35:17 10° NNE
HJ-1C 3.4 19:28:09 10° SSE 19:31:34 86° ENE 19:35:00 10° NNW
Abrixas 2.9 19:30:03 10° W 19:32:50 49° SSW 19:35:35 10° ESE
Cosmos 1937 Rocket 3.5 19:27:39 10° SSW 19:32:53 73° ESE 19:38:12 10° NNE
Cosmos 1378 3.6 19:29:17 10° NNW 19:33:03 68° W 19:36:46 10° S
Cosmos 1833 Rocket 3.3 19:28:30 10° NNW 19:33:47 39° NE 19:39:02 10° ESE
SeaSat 1 2.9 19:29:26 10° SSE 19:34:20 66° WSW 19:39:17 10° NW
SL-27 R/B 2.8 19:32:22 10° NNW 19:35:55 69° WSW 19:39:30 10° SSE
Cosmos 1818 3.6 19:32:47 10° NW 19:38:15 69° NE 19:43:40 10° SE
SJ-6B 3.6 19:34:47 10° S 19:38:27 53° W 19:42:09 10° NNW
Cosmos 1340 Rocket 4.4 19:36:04 10° NNE 19:38:54 18° ENE 19:41:27 11° ESE
Cosmos 1821 Rocket 4.1 19:32:53 10° S 19:39:17 87° E 19:45:39 10° N
Cosmos 1812 Rocket 3.5 19:35:38 10° S 19:40:02 83° E 19:44:27 10° N
Cosmos 2278 Rocket 2.4 19:35:40 10° S 19:41:07 50° ESE 19:46:36 10° NE
FENGYUN 3A 3.9 19:36:48 10° S 19:42:12 77° WSW 19:47:38 10° NNW
Cosmos 1076 Rocket 4.0 19:38:47 10° N 19:42:48 39° ENE 19:46:48 10° SE
Meteor 1-29 4.5 19:41:02 10° NE 19:43:27 17° E 19:45:52 10° SE
USA 186 1.7 19:43:35 10° SE 19:45:34 31° ENE 19:47:37 10° N
BREEZE-M DEB (TANK) 1.9 19:43:20 10° W 19:45:47 66° N 19:47:50 14° E
COSMOS 2487 3.3 19:43:35 10° N 19:46:52 33° ENE 19:49:42 13° SE
Cosmos 1269 Rocket 4.3 19:42:47 10° NNW 19:47:57 51° ENE 19:53:05 10° SE
GP-B 3.9 19:44:21 10° SE 19:48:17 32° ENE 19:52:13 10° NNE
Helios 1B rocket 3.3 19:45:27 10° NE 19:49:04 28° E 19:52:40 10° SSE
Cosmos 2298 Rocket 4.4 19:44:56 10° SSW 19:50:13 70° WNW 19:55:34 10° NNE
Meteor 1-4 Rocket 3.2 19:49:06 10° SSE 19:52:11 30° E 19:55:17 10° NNE
Cosmos 1766 Rocket 4.2 19:48:20 10° N 19:52:33 38° ENE 19:56:45 10° SE
Resurs 01 Rocket 1.7 19:48:11 10° SSE 19:52:35 81° WSW 19:57:03 10° NNW
Cosmos 468 4.5 19:50:18 10° NNW 19:55:34 79° ENE 20:00:48 10° SSE
Cosmos 2297 4.4 19:50:53 10° SSE 19:55:53 32° ESE 20:00:56 10° NE
ATLAS 5 CENTAUR R/B 3.2 19:54:03 10° SSE 19:56:56 16° ESE 19:58:40 14° E
Cosmos 1605 Rocket 4.0 19:51:04 10° S 19:57:17 69° E 20:03:38 10° NNE
Cosmos 1544 3.2 19:54:45 10° S 19:58:16 50° E 20:01:52 10° NNE
H-2A R/B 3.3 19:56:59 10° S 20:00:51 63° W 20:04:47 10° NNW
Lacrosse 4 Rocket 2.4 19:57:35 10° SW 20:01:31 48° NW 20:05:29 10° NNE
Cosmos 1758 3.5 19:58:00 10° SSE 20:01:50 48° E 20:05:43 10° NNE
Helios 1A 2.9 19:58:14 10° SSE 20:02:21 65° ENE 20:06:32 10° N
Cosmos 2098 Rocket 4.5 19:56:59 10° SSE 20:04:05 59° E 20:11:30 10° NNE
Cosmos 2123 Rocket 4.4 20:00:26 10° NNW 20:06:44 70° W 20:12:58 10° S
Cosmos 2082 Rocket 2.2 20:01:47 10° NNW 20:07:31 71° ENE 20:12:40 13° SE
Cosmos 482 Debris 2.5 20:06:51 10° WNW 20:08:43 59° NNE 20:08:58 49° ENE
Cosmos 1953 2.4 20:06:38 10° S 20:10:37 56° E 20:14:37 10° NNE
Cosmos-2242 3.6 20:07:53 10° SSE 20:11:41 33° E 20:15:30 10° NNE
Cosmos 1939 Rocket 3.3 20:10:56 17° SE 20:13:49 45° ENE 20:17:49 10° N
USA 215 3.9 20:08:19 10° ENE 20:14:04 32° SE 20:19:46 10° S
Cosmos 372 Rocket 4.4 20:09:38 10° S 20:14:19 37° ESE 20:19:03 10° NE
ALOS 4.0 20:12:25 10° SSW 20:16:39 34° W 20:20:55 10° NNW
Cosmos 1867 4.0 20:12:13 10° S 20:17:13 38° ESE 20:22:16 10° NE
Cosmos 158 Rocket 3.9 20:15:30 10° NNW 20:20:37 76° ENE 20:24:50 16° SSE
Cosmos 1743 Rocket 4.1 20:20:05 10° N 20:24:15 39° ENE 20:26:01 27° ESE
Cosmos 1500 Rocket 4.4 20:22:30 10° N 20:26:21 30° ENE 20:27:17 27° E
Cosmos 1271 Rocket 3.2 20:25:41 20° SSE 20:28:05 41° E 20:31:54 10° NNE
Cosmos 1153 Rocket 4.5 20:22:52 10° S 20:29:16 82° E 20:35:42 10° N
Lacrosse 5 rocket 1.1 20:25:27 10° NW 20:29:27 71° NE 20:30:54 36° ESE
H-2A R/B 4.3 20:29:43 10° NE 20:29:43 10° NE 20:30:12 10° NE
Cosmos 2061 Rocket 4.3 20:23:48 10° SSE 20:29:52 48° E 20:36:01 10° NNE
Timation 2 Rocket 3.9 20:24:04 10° NNW 20:30:30 87° ENE 20:35:07 19° SSE
ARGOS 4.2 20:28:56 23° E 20:30:38 27° ENE 20:35:05 10° N
CZ-4B DEB 2.8 20:31:08 21° S 20:33:02 73° W 20:36:08 10° NNW
Cosmos 494 Rocket 4.5 20:29:49 10° NNW 20:34:40 41° ENE 20:36:32 30° ESE
BREEZE-M DEB 4.3 20:33:40 10° W 20:37:38 70° N 20:38:23 46° ENE
BREEZE-M DEB (TANK) 3.7 20:39:32 10° SW 20:42:56 63° SSE 20:54:06 10° ENE
H-2A R/B 3.4 20:43:27 22° ENE 20:44:18 23° ENE 20:48:23 10° N
Cosmos 1356 Rocket 3.8 20:40:31 10° N 20:44:29 41° ENE 20:44:52 40° E
Envisat 3.1 20:40:01 13° S 20:44:39 79° WSW 20:49:46 10° NNW
Cosmos 1674 3.0 20:40:59 10° NNW 20:44:44 64° W 20:47:22 18° S
Cosmos 1408 Rocket 3.9 20:42:03 10° NNW 20:46:29 65° W 20:50:27 13° S
USA 267 3.5 20:45:27 26° E 20:49:12 62° NNE 20:55:40 10° NW
Lacrosse 5 2.0 20:47:11 10° WSW 20:52:15 73° NNW 20:56:51 13° NE
Cosmos 1459 Rocket 3.9 20:46:41 10° S 20:52:55 74° E 20:59:06 10° NNE
Cosmos 1125 Rocket 3.5 20:48:16 10° SSW 20:53:29 81° WNW 20:58:45 10° NNE
Geosat 4.3 20:49:34 10° NNE 20:54:36 69° WNW 20:59:35 10° SW
Cosmos 2344 4.1 20:47:46 10° SW 20:55:28 68° NW 21:04:45 10° NE
BREEZE-M DEB (TANK) 4.1 20:52:05 10° SSW 20:56:14 42° SE 21:09:58 10° ENE
Cosmos 2173 Rocket 3.9 20:51:14 10° S 20:57:24 78° E 21:03:42 10° NNE
SPOT 5 3.4 20:56:28 39° ESE 20:57:48 47° ENE 21:02:53 10° N
Timation 1 Rocket 4.4 20:53:47 10° SSW 20:59:48 79° WNW 21:05:52 10° NNE
YAOGAN 6 2.5 20:59:41 71° SE 21:00:02 81° ENE 21:03:48 10° N
Cosmos 1842 Rocket 3.8 21:01:50 49° E 21:01:50 49° E 21:05:50 10° NNE
Cosmos 1184 Rocket 3.0 20:58:46 10° N 21:01:49 67° NNE 21:01:49 67° NNE
ERS-1 Rocket 2.9 21:03:25 35° SSE 21:05:36 88° WSW 21:10:41 10° NNW
YAOGAN 11 4.1 21:09:05 61° SE 21:09:45 72° ENE 21:14:19 10° N
Cosmos 2151 3.0 21:09:52 10° N 21:13:55 64° ENE 21:13:55 64° ENE
Cosmos 2058 3.4 21:10:24 10° N 21:13:51 47° NE 21:13:51 47° NE
Cosmos 1470 3.4 21:12:27 16° SSW 21:15:26 55° WNW 21:19:21 10° N
Cosmos 1340 Rocket 3.8 21:11:48 10° NNW 21:15:40 45° W 21:17:06 31° SSW
Cosmos 1833 Rocket 3.8 21:12:31 10° NW 21:17:44 40° WSW 21:21:14 19° SSW
Terra 3.3 21:21:37 24° NE 21:21:37 24° NE 21:24:39 10° N
Cosmos 1626 3.9 21:17:34 10° N 21:19:18 22° NNE 21:19:18 22° NNE
NOAA 11 4.1 21:22:01 54° SSE 21:23:22 84° ENE 21:28:54 10° NNW
Helios 1B rocket 4.3 21:20:43 10° N 21:24:23 31° WNW 21:28:00 10° SW
Cosmos 2278 Rocket 3.9 21:20:20 10° WSW 21:25:26 33° NW 21:30:34 10° NNE
Cosmos 2251 Rocket 3.5 21:20:05 10° NNW 21:25:26 83° WSW 21:26:30 58° S
MetOp-B 4.0 21:24:40 56° SSE 21:25:53 90° E 21:31:18 10° NNW
SPOT 1/Viking Rocket 3.6 21:27:34 58° ENE 21:27:41 58° ENE 21:32:49 10° N
Cosmos 2016 Rocket 3.9 21:24:18 19° S 21:28:58 85° W 21:35:11 10° N
USA 245 4.2 21:29:15 62° ESE 21:29:57 69° ENE 21:35:58 10° N
Meteor 2-17 Rocket 4.4 21:25:50 21° S 21:30:09 85° W 21:36:21 10° N
CZ-3B DEB 2.6 21:25:47 10° W 21:33:22 51° NNW 21:34:48 36° NNE
Cosmos 1725 Rocket 3.8 21:34:40 51° S 21:36:20 78° E 21:42:33 10° NNE
ATLAS 5 CENTAUR R/B 1.8 21:35:59 10° SW 21:40:46 85° NW 21:46:04 10° NE
Meteor 1-11 4.4 21:37:17 10° NNW 21:42:50 68° W 21:44:04 52° SSW
SL-14 R/B 4.5 21:42:31 10° NNW 21:45:46 39° WNW 21:45:46 39° WNW
Tsikada Rocket 4.0 21:41:32 10° NNW 21:47:43 76° W 21:49:15 53° SSW
Cosmos 2082 Rocket 4.3 21:46:54 10° NW 21:51:01 21° W 21:54:34 12° SW
SL-08 RB Rocket 4.1 21:55:08 62° NNW 21:55:08 62° NNW 21:59:06 10° NNW
USA 215 3.1 21:51:00 10° NE 21:57:35 89° NNW 22:04:08 10° WSW
H-2A R/B 3.6 22:06:50 30° N 22:06:50 30° N 22:09:00 10° NNW
Meteor 2-1 Rocket 4.2 22:06:11 79° NNW 22:06:11 79° NNW 22:11:34 10° N
Cosmos 2221 4.3 22:08:46 26° N 22:08:46 26° N 22:10:46 10° N
Lacrosse 5 rocket 3.8 22:05:25 10° W 22:06:37 15° W 22:06:37 15° W
Cosmos 2346 Rocket 4.4 22:03:56 10° N 22:10:10 82° W 22:10:18 81° WSW
ARGOS 3.6 22:10:26 52° WSW 22:10:36 52° W 22:15:52 10° NNW
H-2A R/B 2.6 22:24:05 57° WNW 22:24:05 57° WNW 22:28:36 10° NNW
USA 267 3.5 22:32:47 56° WSW 22:32:47 56° WSW 22:38:45 10° WNW
Cosmos 2297 Rocket 4.3 22:29:34 10° N 22:32:51 15° NE 22:33:19 15° NE
Lacrosse 5 3.3 22:31:17 10° WNW 22:35:54 34° N 22:36:06 33° N
Cosmos 2233 Rocket 4.4 22:44:21 55° WNW 22:44:21 55° WNW 22:50:23 10° N
Cosmos 2369 Rocket 3.7 22:50:52 30° NNE 22:50:52 30° NNE 22:53:35 10° NNE
CZ-4C R/B 4.4 22:59:37 17° NE 22:59:37 17° NE 23:00:59 10° NE
Terra 3.7 23:00:30 27° NW 23:00:30 27° NW 23:02:54 10° NNW
Cosmos 2227 Rocket 4.0 22:54:34 10° N 22:58:13 23° NNE 22:58:13 23° NNE
Cosmos 1943 Rocket 4.1 23:27:15 23° NNE 23:27:15 23° NNE 23:29:20 10° NNE
ATLAS 5 CENTAUR R/B 4.0 23:22:07 10° W 23:26:16 25° NNW 23:30:45 10° NNE
ATLAS 3B R/B 4.3 23:38:51 24° NE 23:38:51 24° NE 23:41:30 10° NE
USA 215 4.0 23:34:04 10° ENE 23:40:18 48° NNW 23:46:31 10° W
